Total_Precipitation_Accumulation
1.23 1.42 1.86 1.51 1.13 1.10 1.13 1.13 1.13 0.95 0.89 0.95 1.00 0.93 0.93 0.99 0.98 1.02 1.05 1.14 1.29 1.34 1.22 1.20 1.13 1.12 1.07 0.93 0.93 0.81 0.74 0.71 0.74 0.79 0.84 0.82 0.90 1.16 1.46 1.55 1.61 1.08 1.08
0.83 1.05 1.53 1.42 1.11 1.03 1.02 1.00 0.98 0.97 0.92 0.94 1.00 1.00 1.05 1.07 0.99 0.97 1.06 1.11 1.17 1.16 1.04 0.95 0.90 0.88 0.84 0.76 0.68 0.61 0.68 0.78 0.88 1.06 1.04 0.87 0.92 1.16 1.39 1.43 1.58 1.01 0.95
0.65 0.75 0.92 1.08 0.97 0.93 0.99 1.00 1.01 1.08 1.07 1.03 1.01 1.03 1.03 1.06 1.03 1.06 1.05 0.99 1.00 1.00 0.89 0.81 0.72 0.66 0.62 0.58 0.57 0.60 0.75 0.95 1.20 1.38 1.49 0.93 0.70 1.08 1.17 1.17 1.08 0.92 0.90
0.58 0.59 0.61 0.80 0.81 0.83 0.94 0.99 1.13 1.14 1.07 0.98 0.98 0.96 0.97 1.09 1.09 1.02 0.94 0.89 0.92 0.85 0.77 0.67 0.59 0.52 0.49 0.47 0.52 0.67 0.86 1.02 1.27 1.67 1.59 0.81 0.53 0.76 0.93 0.95 0.88 0.86 0.81
0.50 0.55 0.64 0.78 0.78 0.85 0.91 0.99 1.05 0.96 0.90 0.94 0.96 0.97 1.04 1.05 0.99 0.93 0.88 0.85 0.84 0.74 0.65 0.57 0.53 0.49 0.47 0.47 0.57 0.74 0.88 1.02 1.39 1.52 1.00 0.88 0.86 0.86 0.81 0.89 0.92 0.83 0.69
0.44 0.51 0.59 0.71 0.76 0.78 0.77 0.81 0.91 0.92 0.87 0.90 0.89 0.92 0.92 0.94 0.96 0.87 0.79 0.77 0.75 0.71 0.63 0.58 0.52 0.49 0.50 0.54 0.61 0.74 0.93 1.17 1.31 0.89 0.72 0.68 0.72 0.86 0.82 1.00 1.09 0.92 0.76
0.48 0.53 0.55 0.73 0.79 0.75 0.71 0.73 0.76 0.83 0.85 0.85 0.83 0.82 0.83 0.84 0.86 0.79 0.72 0.68 0.68 0.62 0.56 0.56 0.53 0.53 0.57 0.60 0.66 0.76 0.97 1.31 1.03 0.70 0.72 0.75 0.71 0.76 0.90 1.15 1.34 1.18 0.96
0.67 0.68 0.67 0.82 0.86 0.82 0.75 0.74 0.70 0.70 0.71 0.69 0.68 0.70 0.71 0.67 0.71 0.75 0.75 0.65 0.60 0.54 0.51 0.52 0.52 0.55 0.62 0.66 0.73 0.81 1.01 1.05 0.64 0.60 0.59 0.62 0.57 0.64 0.90 1.15 1.34 1.33 1.23
0.93 0.81 0.79 0.88 0.93 0.86 0.91 0.84 0.75 0.68 0.67 0.66 0.64 0.67 0.65 0.60 0.60 0.65 0.76 0.72 0.58 0.56 0.57 0.58 0.58 0.60 0.64 0.71 0.74 0.84 0.98 1.01 0.77 0.69 0.57 0.59 0.61 0.82 1.16 1.31 1.33 1.35 1.32
1.40 1.17 1.05 0.99 0.91 0.86 0.85 0.86 0.82 0.75 0.70 0.69 0.66 0.62 0.67 0.65 0.61 0.69 0.77 0.78 0.71 0.70 0.79 0.77 0.75 0.73 0.70 0.70 0.77 0.89 0.95 0.89 0.87 0.78 0.65 0.54 0.70 1.00 1.31 1.46 1.50 1.50 1.40
1.66 1.53 1.29 1.07 0.98 0.96 0.83 0.78 0.89 0.88 0.85 0.84 0.82 0.78 0.90 1.01 0.87 0.93 0.91 1.04 1.04 1.00 1.10 1.13 1.13 1.07 0.96 0.86 0.98 1.08 0.96 0.96 1.03 0.92 0.70 0.57 0.80 1.09 1.36 1.49 1.49 1.53 1.44
1.90 1.66 1.50 1.29 1.07 0.94 0.82 0.94 1.19 1.01 1.02 1.10 1.17 1.17 1.39 1.59 1.55 1.04 1.12 1.43 1.55 1.59 1.64 1.69 1.74 1.49 1.24 1.16 1.56 1.72 1.12 1.08 1.18 1.08 0.91 0.88 1.14 1.38 1.61 1.55 1.46 1.49 1.41
2.20 1.96 1.77 1.51 1.23 1.06 1.11 1.00 1.15 1.33 1.42 1.45 1.44 1.47 1.64 1.53 1.30 1.16 1.31 1.62 1.87 1.94 1.92 2.15 2.16 1.81 1.85 2.08 2.04 1.83 1.35 1.46 1.51 1.40 1.23 1.31 1.55 1.85 2.20 1.98 1.64 1.50 1.44
2.32 2.20 2.18 1.77 1.60 1.64 1.44 1.17 1.09 1.13 1.26 1.46 1.69 1.66 1.77 1.98 1.86 1.77 1.87 1.92 2.05 2.27 2.65 2.55 2.66 2.51 2.47 2.38 2.27 2.10 1.86 1.91 1.89 1.97 1.84 1.64 1.75 2.05 2.54 2.52 2.06 1.72 1.54
2.33 2.35 2.35 2.14 1.98 2.06 1.83 1.61 1.35 1.46 1.49 1.56 1.69 1.84 1.80 2.08 2.27 2.24 2.20 2.16 2.05 2.15 2.35 2.56 2.58 2.92 3.05 2.67 2.29 2.12 2.12 2.20 2.10 2.07 1.94 1.82 1.77 1.96 2.39 2.66 2.52 2.25 1.94
2.62 2.68 2.47 2.37 2.36 2.37 2.29 2.23 2.10 1.83 1.91 1.82 1.77 1.79 1.85 2.11 2.41 2.54 2.40 2.36 2.21 2.18 2.34 2.53 2.67 3.17 3.17 2.97 2.54 2.26 2.18 2.13 1.99 1.90 1.97 2.14 2.01 1.91 2.08 2.45 2.70 2.65 2.47
2.98 3.03 3.02 2.97 3.09 3.01 2.84 2.72 2.50 2.30 2.15 2.11 2.17 2.19 2.09 2.17 2.44 2.47 2.29 2.19 2.24 2.39 2.58 2.58 2.72 3.00 2.75 2.75 2.53 2.30 2.10 1.89 1.74 1.71 1.88 2.06 1.96 1.93 2.10 2.31 2.54 2.67 2.80
3.20 3.37 3.55 3.53 3.54 3.37 3.35 3.28 3.03 2.79 2.61 2.44 2.38 2.43 2.28 2.26 2.34 2.53 2.32 2.15 2.47 2.52 2.64 2.91 3.03 3.03 2.96 2.96 2.69 2.32 2.06 1.94 1.61 1.52 1.53 1.68 1.90 1.70 1.99 2.26 2.33 2.44 2.76
3.64 3.90 4.10 4.09 3.94 3.68 3.71 3.67 3.52 3.37 3.03 2.67 2.51 2.43 2.29 2.27 2.39 2.68 2.63 2.71 2.76 2.83 2.87 2.74 3.13 3.15 3.01 3.04 2.63 2.37 2.02 1.77 1.59 1.42 1.36 1.35 1.59 1.76 1.82 1.90 2.06 2.21 2.64
4.14 4.54 4.39 4.29 4.47 4.35 4.17 4.02 3.75 3.31 2.89 2.75 2.71 2.51 2.37 2.39 2.49 2.90 2.75 2.76 2.81 2.94 3.00 2.97 3.07 3.08 2.81 2.80 2.48 2.28 1.91 1.49 1.43 1.37 1.22 1.22 1.32 1.37 1.63 1.92 2.11 1.92 2.29
4.19 4.57 4.73 4.74 4.63 4.43 4.04 3.71 3.46 3.24 3.05 2.80 2.63 2.57 2.45 2.33 2.48 2.89 2.76 2.99 2.94 2.90 2.91 2.96 3.06 2.96 2.60 2.76 2.81 2.32 1.77 1.40 1.41 1.24 1.19 1.23 1.28 1.30 1.59 1.94 2.18 2.15 1.97
3.84 4.29 4.59 4.74 4.62 4.23 3.83 3.62 3.48 3.42 3.04 2.74 2.71 2.79 2.65 2.65 2.69 2.72 2.89 2.86 2.92 3.01 2.93 2.90 2.99 2.80 2.42 2.61 2.86 2.90 2.23 1.83 1.43 1.07 1.19 1.29 1.40 1.51 1.57 1.70 1.91 2.11 2.11
3.37 3.68 3.80 3.95 3.92 3.76 3.78 3.78 3.70 3.65 3.19 3.07 3.06 3.05 2.87 2.87 2.89 2.89 2.86 2.79 2.78 2.61 2.64 2.67 2.69 2.70 2.59 2.50 2.75 3.04 2.58 2.08 1.75 1.27 1.20 1.26 1.45 1.67 1.71 1.76 1.78 1.97 2.13
2.91 3.26 3.49 3.55 3.50 3.41 3.51 3.56 3.42 3.21 3.04 3.14 3.41 3.36 3.10 2.88 2.73 2.54 2.48 2.60 2.60 2.43 2.43 2.12 2.25 2.44 2.44 2.27 2.49 2.54 2.54 2.52 2.41 1.76 1.36 1.22 1.38 1.58 1.72 1.63 1.65 1.88 2.17
2.52 2.81 3.06 3.32 3.41 3.36 3.41 3.34 3.35 3.23 3.21 3.24 3.19 3.18 2.96 2.77 2.45 2.13 2.14 2.28 2.28 2.19 2.10 2.01 2.17 2.07 2.00 2.00 2.22 2.41 2.47 2.50 2.40 2.25 1.86 1.75 1.70 1.59 1.53 1.55 1.75 1.91 2.11
2.16 2.28 2.41 2.63 2.92 3.09 3.14 3.12 3.15 3.09 3.07 2.98 2.88 2.74 2.55 2.39 2.12 1.85 1.76 1.94 2.07 2.06 2.01 1.99 2.07 1.97 1.98 2.10 2.08 2.15 2.37 2.35 2.32 2.46 2.12 1.95 1.89 1.64 1.57 1.64 1.70 1.90 2.00